Weather History for DeLand, FL

Change the Weather History Date:

Monday, September 2, 2013

  Actual Average Record
Temperature  
Mean Temperature - -  
Max Temperature - 89 °F 89 °F (2014)
Min Temperature - 70 °F 73 °F (2014)
Moisture  
Dew Point -    
Average Humidity    
Maximum Humidity    
Minimum Humidity    
Precipitation  
Precipitation 0.00 in - - ()
Sea Level Pressure  
Sea Level Pressure 29.98 in    
Wind  
Wind Speed 5 mph (SSW)    
Max Wind Speed 12 mph    
Max Gust Speed -    
Visibility 10 miles    
Events      
Averages and records for this station are not official NWS values.
T = Trace of Precipitation, MM = Missing Value Source: NWS Daily Summary

Daily Weather History Graph

Daily Weather History Graph

Search for Another Location

Airport:

Trip Planner

Search our weather history database for the weather conditions in past years. The results will help you decide how hot, cold, wet, or windy it might be!

Date:

Astronomy

Sep. 02, 2013 Rise Set
Actual Time 7:03 AM EDT 7:45 PM EDT
Civil Twilight 6:39 AM EDT 8:09 PM EDT
Nautical Twilight 6:11 AM EDT 8:37 PM EDT
Astronomical Twilight 5:42 AM EDT 9:06 PM EDT
Moon 4:27 AM EDT (9/2) 5:52 PM EDT (9/2)
Length of Visible Light 13h 30m
Length of Day
12h 41m
Waning Crescent, 8% of the Moon is Illuminated
Sep 2
Waning Crescent
Sep 5
New
Sep 12
First Quarter
Sep 19
Full
Sep 26
Last Quarter

Hourly Weather History & Observations

Time (EDT) Temp. Dew Point Humidity Pressure Visibility Wind Dir Wind Speed Gust Speed Precip Events Conditions
12:15 AM - - N/A% 30.01 in 9.0 mi South 3.5 mph - N/A   Clear
12:35 AM - - N/A% 30.00 in 9.0 mi South 5.8 mph - N/A   Clear
12:55 AM - - N/A% 29.99 in 9.0 mi South 4.6 mph - N/A   Clear
1:15 AM - - N/A% 29.99 in 8.0 mi SSW 5.8 mph - N/A   Clear
1:35 AM - - N/A% 29.98 in 9.0 mi South 5.8 mph - N/A   Clear
1:55 AM - - N/A% 29.98 in 9.0 mi South 5.8 mph - N/A   Clear
2:15 AM - - N/A% 29.99 in 8.0 mi SSW 5.8 mph - N/A   Clear
2:35 AM - - N/A% 29.98 in 10.0 mi SW 4.6 mph - N/A   Clear
2:55 AM - - N/A% 29.98 in 9.0 mi SSW 4.6 mph - N/A   Clear
3:15 AM - - N/A% 29.97 in 10.0 mi SSW 3.5 mph - N/A   Clear
3:35 AM - - N/A% 29.97 in 9.0 mi West 3.5 mph - N/A   Clear
3:55 AM - - N/A% 29.96 in 10.0 mi Calm Calm - N/A   Clear
4:15 AM - - N/A% 29.97 in 9.0 mi Calm Calm - N/A   Clear
4:35 AM - - N/A% 29.96 in 8.0 mi Calm Calm - N/A   Clear
4:55 AM - - N/A% 29.97 in 10.0 mi South 3.5 mph - N/A   Clear
5:15 AM - - N/A% 29.97 in 9.0 mi Calm Calm - N/A   Clear
5:35 AM - - N/A% 29.98 in 9.0 mi Calm Calm - N/A   Clear
5:55 AM - - N/A% 29.98 in 8.0 mi Calm Calm - N/A   Clear
6:15 AM - - N/A% 29.98 in 9.0 mi Calm Calm - N/A   Clear
6:35 AM - - N/A% 29.98 in 8.0 mi Calm Calm - N/A   Clear
6:55 AM - - N/A% 29.99 in 8.0 mi SSW 4.6 mph - N/A   Clear
7:15 AM - - N/A% 30.00 in 8.0 mi SSW 4.6 mph - N/A   Clear
7:35 AM - - N/A% 30.01 in 9.0 mi SSE 3.5 mph - N/A   Clear
7:55 AM - - N/A% 30.01 in 9.0 mi South 3.5 mph - N/A   Clear
8:15 AM - - N/A% 30.02 in 8.0 mi SSW 5.8 mph - N/A   Clear
8:35 AM - - N/A% 30.02 in 9.0 mi SSW 4.6 mph - N/A   Clear
8:55 AM - - N/A% 30.02 in 10.0 mi SSW 5.8 mph - N/A   Clear
9:15 AM - - N/A% 30.02 in 10.0 mi WSW 5.8 mph - N/A   Clear
9:35 AM - - N/A% 30.03 in 10.0 mi SSW 4.6 mph - N/A   Clear
9:55 AM - - N/A% 30.03 in 10.0 mi SW 4.6 mph - N/A   Clear
10:15 AM - - N/A% 30.03 in 10.0 mi WSW 6.9 mph - N/A   Clear
10:35 AM - - N/A% 30.03 in 10.0 mi West 4.6 mph - N/A   Clear
10:55 AM - - N/A% 30.04 in 10.0 mi WSW 5.8 mph - N/A   Clear
11:15 AM - - N/A% 30.03 in 10.0 mi West 8.1 mph - N/A   Partly Cloudy
11:35 AM - - N/A% 30.03 in 10.0 mi WSW 8.1 mph - N/A   Clear
11:55 AM - - N/A% 30.03 in 10.0 mi WSW 4.6 mph - N/A   Clear
12:15 PM - - N/A% 30.03 in 10.0 mi WSW 8.1 mph - N/A   Clear
12:35 PM - - N/A% 30.02 in 10.0 mi SW 8.1 mph - N/A   Clear
12:55 PM - - N/A% 30.01 in 9.0 mi SW 6.9 mph - N/A   Clear
1:15 PM - - N/A% 30.00 in 10.0 mi WSW 4.6 mph - N/A   Clear
1:35 PM - - N/A% 29.99 in 10.0 mi SSW 6.9 mph - N/A   Scattered Clouds
1:55 PM - - N/A% 29.99 in 10.0 mi WSW 4.6 mph - N/A   Partly Cloudy
2:15 PM - - N/A% 29.98 in 10.0 mi SW 5.8 mph - N/A   Partly Cloudy
2:35 PM - - N/A% 29.97 in 10.0 mi SW 6.9 mph - N/A   Partly Cloudy
2:55 PM - - N/A% 29.96 in 10.0 mi South 4.6 mph - N/A   Partly Cloudy
3:15 PM - - N/A% 29.95 in 10.0 mi SSW 5.8 mph - N/A   Partly Cloudy
3:35 PM - - N/A% 29.94 in 10.0 mi SW 9.2 mph - N/A   Partly Cloudy
3:55 PM - - N/A% 29.94 in 9.0 mi SW 6.9 mph - N/A   Partly Cloudy
4:15 PM - - N/A% 29.93 in 10.0 mi West 5.8 mph - N/A   Clear
4:35 PM - - N/A% 29.93 in 10.0 mi South 8.1 mph - N/A   Clear
4:55 PM - - N/A% 29.93 in 10.0 mi South 11.5 mph - N/A   Scattered Clouds
5:15 PM - - N/A% 29.93 in 10.0 mi SSW 10.4 mph - N/A   Partly Cloudy
5:35 PM - - N/A% 29.93 in 9.0 mi South 9.2 mph - N/A   Partly Cloudy
5:55 PM - - N/A% 29.92 in 10.0 mi SSW 10.4 mph - N/A   Clear
6:15 PM - - N/A% 29.93 in 10.0 mi SSE 11.5 mph - N/A   Clear
6:35 PM - - N/A% 29.95 in 10.0 mi South 11.5 mph - N/A   Clear
6:55 PM - - N/A% 29.95 in 10.0 mi SSE 10.4 mph - N/A   Clear
7:15 PM - - N/A% 29.94 in 10.0 mi South 11.5 mph - N/A   Clear
7:35 PM - - N/A% 29.96 in 10.0 mi SSW 6.9 mph - N/A   Clear
7:55 PM - - N/A% 29.96 in 10.0 mi SW 5.8 mph - N/A   Partly Cloudy
8:15 PM - - N/A% 29.95 in 10.0 mi SSW 4.6 mph - N/A   Partly Cloudy
8:35 PM - - N/A% 29.94 in 10.0 mi SSW 5.8 mph - N/A   Clear
8:55 PM - - N/A% 29.95 in 10.0 mi SSW 5.8 mph - N/A   Clear
9:15 PM - - N/A% 29.96 in 10.0 mi SSW 5.8 mph - N/A   Clear
9:35 PM - - N/A% 29.97 in 10.0 mi SW 4.6 mph - N/A   Clear
9:55 PM - - N/A% 29.97 in 10.0 mi SW 5.8 mph - N/A   Clear
10:15 PM - - N/A% 29.97 in 10.0 mi NW 3.5 mph - N/A   Clear
10:35 PM - - N/A% 29.98 in 9.0 mi NW 3.5 mph - N/A   Clear
10:55 PM - - N/A% 29.98 in 9.0 mi WSW 3.5 mph - N/A   Clear
11:15 PM - - N/A% 29.98 in 9.0 mi SSW 3.5 mph - N/A   Clear
11:35 PM - - N/A% 29.98 in 10.0 mi South 3.5 mph - N/A   Clear
11:55 PM - - N/A% 29.98 in 10.0 mi South 3.5 mph - N/A   Clear